Location: Serin Observatory
(40.5200°N, 74.4500°W)
Time: 09:15:07
(UTC+00:00)

SL-8 R/B - Visible Passes

Search period start: 26 March 2017 00:00
Search period end: 05 April 2017 00:00
Orbit: 657 x 668 km, 48.4° (Epoch: 24 March)

Date Brightness Start Highest point End Pass type
(mag) Time Alt. Az. Time Alt. Az. Time Alt. Az.
26 Mar 5.1 08:10:53 31° N 08:10:57 31° N 08:15:13 10° ENE visible
26 Mar 4.3 09:49:26 10° NW 09:54:10 56° NNE 09:58:51 10° ESE visible
27 Mar 6.5 07:02:36 14° NE 07:02:36 14° NE 07:03:24 10° ENE visible
27 Mar 4.9 08:40:34 27° NNW 08:42:28 38° NNE 08:46:56 10° E visible
27 Mar 3.7 10:20:33 10° WNW 10:25:20 78° SSW 10:30:06 10° SE visible
28 Mar 5.8 07:32:22 25° NE 07:32:22 25° NE 07:34:56 10° ENE visible
28 Mar 4.2 09:10:21 18° NW 09:13:51 59° NNE 09:18:33 10° ESE visible
29 Mar 4.8 08:02:15 39° NNE 08:02:15 39° NNE 08:06:40 10° E visible
29 Mar 3.6 09:40:15 10° WNW 09:44:59 73° SW 09:49:44 10° SE visible
30 Mar 6.6 06:54:17 12° ENE 06:54:17 12° ENE 06:54:39 10° ENE visible
30 Mar 4.0 08:32:17 45° NNW 08:33:32 62° NNE 08:38:15 10° ESE visible
30 Mar 4.5 10:11:38 10° WNW 10:15:53 32° SW 10:20:07 10° SSE visible
31 Mar 5.9 07:24:31 22° ENE 07:24:31 22° ENE 07:26:22 10° E visible
31 Mar 3.6 09:02:32 32° WNW 09:04:39 69° SW 09:09:23 10° SE visible
01 Apr 4.9 07:55:00 36° E 07:55:00 36° E 07:57:57 10° ESE visible
01 Apr 4.5 09:33:02 19° W 09:35:31 30° SW 09:39:40 10° SSE visible
02 Apr 5.9 01:28:10 10° SSW 01:28:54 14° SSW 01:28:54 14° SSW visible
02 Apr 4.4 08:25:48 41° SSE 08:25:48 41° SSE 08:29:01 10° SE visible
02 Apr 5.5 10:04:13 10° WSW 10:06:07 12° SW 10:08:02 10° SSW visible
03 Apr 5.2 00:18:32 10° S 00:21:31 16° SE 00:22:19 16° ESE visible
03 Apr 5.5 01:58:41 10° SW 02:00:24 22° SW 02:00:24 22° SW visible
03 Apr 5.1 08:56:55 22° S 08:56:55 22° S 08:59:13 10° SSE visible
04 Apr 4.2 00:47:45 10° SSW 00:52:12 38° SE 00:53:35 31° ESE visible
04 Apr 5.8 02:29:56 10° WSW 02:31:40 22° W 02:31:40 22° W visible
